TimeCST,TemperatureF,Dew PointF,Humidity,Sea Level PressureIn,VisibilityMPH,Wind Direction,Wind SpeedMPH,Gust SpeedMPH,PrecipitationIn,Events,Conditions,WindDirDegrees,DateUTC
12:53 AM,55.9,39.9,55,30.10,10.0,NNE,9.2,-,N/A,,Scattered Clouds,30,2013-11-19 06:53:00
1:53 AM,55.9,39.9,55,30.12,10.0,NNE,8.1,-,N/A,,Overcast,30,2013-11-19 07:53:00
2:53 AM,53.1,39.9,61,30.11,10.0,NE,6.9,-,N/A,,Clear,40,2013-11-19 08:53:00
3:53 AM,54.0,39.9,59,30.11,10.0,NE,8.1,-,N/A,,Overcast,40,2013-11-19 09:53:00
4:53 AM,54.0,39.0,57,30.12,10.0,NE,5.8,-,N/A,,Mostly Cloudy,50,2013-11-19 10:53:00
5:53 AM,53.1,39.0,59,30.12,10.0,NE,6.9,-,N/A,,Mostly Cloudy,50,2013-11-19 11:53:00
6:53 AM,54.0,39.0,57,30.14,10.0,ENE,8.1,-,N/A,,Overcast,60,2013-11-19 12:53:00
7:53 AM,55.0,39.0,55,30.16,10.0,ENE,8.1,-,N/A,,Overcast,60,2013-11-19 13:53:00
8:53 AM,55.9,37.9,51,30.17,10.0,East,9.2,-,N/A,,Overcast,80,2013-11-19 14:53:00
9:53 AM,57.9,36.0,44,30.17,10.0,ENE,10.4,17.3,N/A,,Scattered Clouds,60,2013-11-19 15:53:00
10:53 AM,59.0,34.0,39,30.17,10.0,NE,8.1,-,N/A,,Scattered Clouds,50,2013-11-19 16:53:00
11:53 AM,60.1,28.9,31,30.14,10.0,ENE,9.2,17.3,N/A,,Clear,60,2013-11-19 17:53:00
12:53 PM,63.0,30.0,29,30.10,10.0,NE,8.1,-,N/A,,Clear,50,2013-11-19 18:53:00
1:53 PM,64.9,30.0,27,30.08,10.0,NNE,10.4,-,N/A,,Clear,30,2013-11-19 19:53:00
2:53 PM,66.9,30.0,25,30.07,10.0,NE,9.2,-,N/A,,Clear,40,2013-11-19 20:53:00
3:53 PM,66.0,30.0,26,30.06,10.0,NE,4.6,-,N/A,,Clear,50,2013-11-19 21:53:00
4:53 PM,62.1,32.0,32,30.07,10.0,NE,4.6,-,N/A,,Clear,50,2013-11-19 22:53:00
5:53 PM,55.9,41.0,57,30.08,10.0,Calm,Calm,-,N/A,,Clear,0,2013-11-19 23:53:00
6:53 PM,52.0,42.1,69,30.09,10.0,Calm,Calm,-,N/A,,Clear,0,2013-11-20 00:53:00
7:53 PM,52.0,41.0,66,30.09,10.0,NE,3.5,-,N/A,,Clear,50,2013-11-20 01:53:00
8:53 PM,51.1,37.9,61,30.09,10.0,ENE,3.5,-,N/A,,Clear,60,2013-11-20 02:53:00
9:53 PM,51.1,36.0,56,30.10,10.0,East,5.8,-,N/A,,Clear,90,2013-11-20 03:53:00
10:53 PM,50.0,35.1,57,30.10,10.0,ENE,4.6,-,N/A,,Clear,70,2013-11-20 04:53:00
11:53 PM,48.0,36.0,63,30.09,10.0,Calm,Calm,-,N/A,,Clear,0,2013-11-20 05:53:00